Location: Arboyeti
(42.1122°N, 44.6017°E)
Time: 20:07:43
(UTC+00:00)

Cosmos 2341 Rocket - Pass Details

Date: 19 April 2021
Orbit: 969 x 1003 km, 82.9° (Epoch: 17 May)

Event Time Altitude Azimuth Distance (km) Brightness Sun altitude
Rises 21:57:57 0° 353° (N) 3,715 7.9 -34.8°
Reaches altitude 10° 22:00:29 10° 356° (N) 2,766 7.1 -34.7°
Enters shadow 22:05:42 60° 20° (NNE) 1,134 4.4 -34.3°
